Tracking 31027 objects as of 19-Jul-2025
HD Live streaming from Space Station
objects crossing your sky now

COSMOS 626

Track COSMOS 626 now!
10-day predictions
COSMOS 626 is classified as:


NORAD ID: 7005
Int'l Code: 1973-108A
Perigee: 908.7 km
Apogee: 994.5 km
Inclination: 65.4 °
Period: 103.9 minutes
Semi major axis: 7322 km
RCS: 3.2756 m2 (large)
Launch date: December 27, 1973
Source: Commonwealth of Independent States (former USSR) (CIS)
Launch site: TYURATAM MISSILE AND SPACE COMPLEX (TTMTR)
Your satellite tracking list
STARLINK-32625
Track 1 satellite(s)




NASA's NSSDC Master Catalog

Two Line Element Set (TLE):
1 07005U 73108A   25199.42331250 -.00000072  00000-0  12270-4 0  9993
2 07005  65.4356 226.0673 0058546 210.6458 149.1183 13.85493674608419
Source of the keplerian elements: AFSPC